User: anonymous   Login
Location: Azul
(36.7830°S, 59.8500°W)
Time: 01:26:41
(UTC-03:00)
Language:

RS-44 - Orbit

View from above orbital plane
View from above orbital plane
View from above satellite
View from above satellite

Ground track
Ground track

The orbit data is extracted from the following two-line orbital elements,

1 44909U 19096E   21295.51730955  .00000015  00000-0  10560-4 0  9997
2 44909  82.5264  28.3753 0217990 155.8227 205.3294 12.79711218 85075
Epoch (UTC): 22 October 2021 12:24:55
Eccentricity: 0.0217990
inclination: 82.5264°
perigee height: 1174 km
apogee height: 1511 km
right ascension of ascending node: 28.3753°
argument of perigee: 155.8227°
revolutions per day: 12.79711218
mean anomaly at epoch: 205.3294°
orbit number at epoch: 8507

The dashed part of the orbit path shows where the satellite is in the earth's shadow,  

DLR